This is the latest recevied weather packets stored in our database for station/object DJ4CK-1. If no packets are shown the sender has not sent any weather packets the latest 1 day(s).
| Time | Temp. | Humidity | Pressure | Rain* | Wind** | Luminosity | Snow |
|---|---|---|---|---|---|---|---|
| 1778075943 | 19.44° C | 48% | 1005.3 hPa | 0 mm | - | - | - |
| 1778075764 | 18.33° C | 48% | 1005.4 hPa | 0 mm | - | - | - |
| 1778075703 | 18.33° C | 49% | 1005.4 hPa | 0 mm | - | - | - |
| 1778075464 | 18.33° C | 52% | 1005.5 hPa | 0 mm | - | - | - |
| 1778074864 | 18.33° C | 53% | 1005.6 hPa | 0 mm | - | - | - |
| 1778074804 | 18.33° C | 51% | 1005.6 hPa | 0 mm | - | - | - |
| 1778074324 | 18.33° C | 51% | 1005.5 hPa | 0 mm | - | - | - |
| 1778074264 | 18.33° C | 51% | 1005.4 hPa | 0 mm | - | - | - |
| 1778073964 | 18.33° C | 51% | 1005.3 hPa | 0 mm | - | - | - |
| 1778073903 | 18.33° C | 50% | 1005.3 hPa | 0 mm | - | - | - |
| 1778073663 | 18.33° C | 51% | 1005.4 hPa | 0 mm | - | - | - |
| 1778073364 | 19.44° C | 47% | 1005.4 hPa | 0 mm | - | - | - |
| 1778073064 | 19.44° C | 43% | 1005.4 hPa | 0 mm | - | - | - |
| 1778072764 | 19.44° C | 44% | 1005.4 hPa | 0 mm | - | - | - |
| 1778072704 | 19.44° C | 48% | 1005.4 hPa | 0 mm | - | - | - |
| 1778072464 | 19.44° C | 50% | 1005.5 hPa | 0 mm | - | - | - |
| 1778072164 | 18.89° C | 49% | 1005.5 hPa | 0 mm | - | - | - |
| 1778072103 | 19.44° C | 48% | 1005.5 hPa | 0 mm | - | - | - |
| 1778071924 | 19.44° C | 47% | 1005.5 hPa | 0 mm | - | - | - |
| 1778071864 | 19.44° C | 46% | 1005.5 hPa | 0 mm | - | - | - |
| 1778071624 | 20° C | 47% | 1005.5 hPa | 0 mm | - | - | - |
| 1778071564 | 20° C | 47% | 1005.5 hPa | 0 mm | - | - | - |
| 1778071504 | 20° C | 48% | 1005.6 hPa | 0 mm | - | - | - |
| 1778071443 | 19.44° C | 46% | 1005.6 hPa | 0 mm | - | - | - |
| 1778071264 | 19.44° C | 47% | 1005.6 hPa | 0 mm | - | - | - |
* Rain latest hour (hover to see other rain measurements)
** Current wind speed in m/s (hover to see current wind gust speed)